Shreveport, LA

7:28 PM CST on December 05, 2016 (GMT -0600)
Shreveport Downtown

Weather History for KDTN - November, 2012

Change the Weather History Date:

Sunday, November 4, 2012

  Actual Average (KSHV) Record (KSHV)
Temperature  
Mean Temperature 62 °F 60 °F  
Max Temperature 69 °F 72 °F 86 °F (1948)
Min Temperature 57 °F 49 °F 23 °F (1991)
Degree Days  
Heating Degree Days 2 6  
Month to date heating degree days 23  
Since 1 July heating degree days 109  
Cooling Degree Days 0 2  
Month to date cooling degree days 8  
Year to date cooling degree days 2457  
Growing Degree Days 12 (Base 50)    
Moisture  
Dew Point 55 °F    
Average Humidity 81    
Maximum Humidity 94    
Minimum Humidity 68    
Precipitation  
Precipitation 0.00 in 0.16 in 2.98 in (1925)
Month to date precipitation 0.65  
Year to date precipitation 42.76  
Snow  
Snow 0.00 in - - ()
Month to date snowfall  
Since 1 July snowfall  
Since 1 September snowfall  
Snow Depth -    
Sea Level Pressure  
Sea Level Pressure 30.11 in    
Wind  
Wind Speed 4 mph (ENE)    
Max Wind Speed 12 mph    
Max Gust Speed -    
Visibility 10 miles    
Events      
T = Trace of Precipitation, MM = Missing Value Source: NWS Daily Summary

Daily Weather History Graph

Daily Weather History Graph

Search for Another Location

Airport or City:

Trip Planner

Search our weather history database for the weather conditions in past years. The results will help you decide how hot, cold, wet, or windy it might be!

Date:

Astronomy

Nov. 04, 2012 Rise Set
Actual Time 6:35 AM CST 5:21 PM CST
Civil Twilight 6:09 AM CST 5:46 PM CST
Nautical Twilight 5:40 AM CST 6:16 PM CST
Astronomical Twilight 5:11 AM CST 6:44 PM CST
Moon 10:02 PM CST (11/4) 11:15 AM CST (11/4)
Length of Visible Light 11h 37m
Length of Day
10h 45m
Waning Gibbous, 72% of the Moon is Illuminated
Nov 4
Waning Gibbous
Nov 6
Last Quarter
Nov 13
New
Nov 20
First Quarter
Nov 28
Full

Hourly Weather History & Observations

Time (CST) Temp. Dew Point Humidity Pressure Visibility Wind Dir Wind Speed Gust Speed Precip Events Conditions
12:53 AM 64.0 °F 59.0 °F 84% 30.06 in 10.0 mi SE 3.5 mph - N/A   Clear
1:53 AM 63.0 °F 59.0 °F 87% 30.04 in 10.0 mi Calm Calm - N/A   Clear
1:53 AM 62.1 °F 59.0 °F 90% 30.05 in 10.0 mi Calm Calm - N/A   Clear
2:53 AM 61.0 °F 57.9 °F 90% 30.06 in 10.0 mi Calm Calm - N/A   Clear
3:53 AM 60.1 °F 57.9 °F 93% 30.06 in 10.0 mi Calm Calm - N/A   Scattered Clouds
4:53 AM 60.1 °F 57.9 °F 93% 30.09 in 10.0 mi NE 4.6 mph - N/A   Partly Cloudy
5:06 AM 60.8 °F 59.0 °F 94% 30.10 in 10.0 mi NE 4.6 mph - N/A   Scattered Clouds
5:18 AM 60.8 °F 59.0 °F 94% 30.11 in 10.0 mi NE 6.9 mph - N/A   Mostly Cloudy
5:53 AM 60.1 °F 57.0 °F 90% 30.10 in 10.0 mi ENE 6.9 mph - N/A   Overcast
6:53 AM 59.0 °F 55.0 °F 87% 30.12 in 10.0 mi NNE 4.6 mph - N/A   Overcast
7:53 AM 57.9 °F 53.1 °F 84% 30.14 in 10.0 mi NNE 10.4 mph - N/A   Overcast
8:07 AM 57.2 °F 53.6 °F 88% 30.14 in 10.0 mi NE 5.8 mph - N/A   Overcast
8:24 AM 57.2 °F 53.6 °F 88% 30.15 in 10.0 mi NE 8.1 mph - N/A   Mostly Cloudy
8:39 AM 57.2 °F 51.8 °F 82% 30.14 in 10.0 mi NE 8.1 mph - N/A   Mostly Cloudy
8:46 AM 57.2 °F 53.6 °F 88% 30.14 in 10.0 mi ENE 6.9 mph - N/A   Overcast
8:53 AM 57.9 °F 53.1 °F 84% 30.14 in 10.0 mi ENE 4.6 mph - N/A   Overcast
9:30 AM 60.8 °F 55.4 °F 82% 30.16 in 10.0 mi NE 4.6 mph - N/A   Mostly Cloudy
9:45 AM 62.6 °F 53.6 °F 72% 30.16 in 10.0 mi ENE 6.9 mph - N/A   Mostly Cloudy
9:53 AM 63.0 °F 55.0 °F 75% 30.16 in 10.0 mi NE 9.2 mph - N/A   Scattered Clouds
10:14 AM 62.6 °F 55.4 °F 77% 30.17 in 10.0 mi ENE 5.8 mph - N/A   Mostly Cloudy
10:34 AM 62.6 °F 55.4 °F 77% 30.17 in 10.0 mi ENE 6.9 mph - N/A   Overcast
10:53 AM 63.0 °F 55.9 °F 78% 30.15 in 10.0 mi ENE 3.5 mph - N/A   Overcast
11:40 AM 64.4 °F 57.2 °F 77% 30.13 in 10.0 mi SE 6.9 mph - N/A   Scattered Clouds
11:53 AM 64.9 °F 57.0 °F 75% 30.12 in 10.0 mi SE 4.6 mph - N/A   Partly Cloudy
12:24 PM 68.0 °F 57.2 °F 68% 30.11 in 10.0 mi Calm Calm - N/A   Mostly Cloudy
12:53 PM 64.0 °F 55.9 °F 75% 30.11 in 10.0 mi North 11.5 mph - N/A   Overcast
1:53 PM 63.0 °F 55.0 °F 75% 30.09 in 10.0 mi NE 8.1 mph - N/A   Overcast
2:53 PM 63.0 °F 54.0 °F 72% 30.09 in 10.0 mi NE 8.1 mph - N/A   Overcast
3:53 PM 64.0 °F 54.0 °F 70% 30.08 in 10.0 mi Variable 3.5 mph - N/A   Overcast
4:53 PM 64.0 °F 54.0 °F 70% 30.08 in 10.0 mi East 3.5 mph - N/A   Overcast
5:53 PM 63.0 °F 54.0 °F 72% 30.09 in 10.0 mi Calm Calm - N/A   Mostly Cloudy
6:53 PM 61.0 °F 54.0 °F 78% 30.11 in 10.0 mi ENE 4.6 mph - N/A   Overcast
7:53 PM 59.0 °F 52.0 °F 78% 30.11 in 10.0 mi ENE 4.6 mph - N/A   Overcast
8:53 PM 57.9 °F 52.0 °F 81% 30.12 in 10.0 mi East 4.6 mph - N/A   Mostly Cloudy
9:53 PM 57.0 °F 52.0 °F 83% 30.11 in 10.0 mi East 3.5 mph - N/A   Scattered Clouds
10:53 PM 57.0 °F 52.0 °F 83% 30.10 in 10.0 mi Calm Calm - N/A   Mostly Cloudy